Location: Balaclava NSW 2575, Australia
(34.4510°S, 150.4953°E)
Time: 16:34:30
(UTC+10:00)

Envisat - Pass Details

Date: 24 May 2021
Orbit: 764 x 766 km, 98.1° (Epoch: 18 June)

Event Time Altitude Azimuth Distance (km) Brightness Sun altitude
Rises 18:22:03 0° 183° (S) 3,266 6.2 -17.0°
Reaches altitude 10° 18:24:47 10° 197° (SSW) 2,331 5.5 -17.5°
Maximum altitude 18:28:47 24° 248° (WSW) 1,582 5.3 -18.3°
Drops below altitude 10° 18:32:45 10° 300° (WNW) 2,309 6.6 -19.1°
Sets 18:35:27 0° 313° (NW) 3,227 7.2 -19.7°
